GW4109 Weather Reports


time (UTC)temp
C
wind
direction
speed
KPH
gust
KPH
rain 1hr
cm
rain 24hr
cm
rain mn
cm
humidity
%
barometer
mb
20260504090110 17 9 6.4 12.9 0.00 0.00 0.00 50 1015.7
20260504081540 17 122 1.6 3.2 0.00 0.00 0.00 46 1017.3
20260504081036 17 130 0.0 4.8 0.00 0.00 0.00 45 1017.3
20260504080533 17 248 0.0 4.8 0.00 0.00 0.00 45 1017.1
20260504050346 18 257 14.5 33.8 0.00 0.00 0.00 43 1014.1
20260504045844 18 288 9.7 25.7 0.00 0.00 0.00 42 1014.1
20260504045343 18 303 14.5 25.7 0.00 0.00 0.00 43 1014.2
20260504044841 18 314 20.9 24.1 0.00 0.00 0.00 42 1014.1
20260504044338 18 299 11.3 19.3 0.00 0.00 0.00 42 1014.2
20260504043836 18 301 6.4 9.7 0.00 0.00 0.00 42 1014.0
20260504043332 18 254 11.3 20.9 0.00 0.00 0.00 42 1014.2
20260504042830 18 246 9.7 9.7 0.00 0.00 0.00 41 1014.1
20260504042326 18 188 3.2 6.4 0.00 0.00 0.00 41 1013.9
20260504041822 18 146 0.0 6.4 0.00 0.00 0.00 41 1013.8
20260504041318 18 29 4.8 4.8 0.00 0.00 0.00 41 1013.9
20260504040815 19 66 4.8 8.0 0.00 0.00 0.00 41 1014.0
20260504040313 19 146 0.0 8.0 0.00 0.00 0.00 40 1013.9
20260504035808 19 276 4.8 8.0 0.00 0.00 0.00 40 1013.7
20260504035306 19 183 0.0 8.0 0.00 0.00 0.00 41 1013.8
20260504034803 19 170 3.2 6.4 0.00 0.00 0.00 40 1013.7
20260504034300 20 49 3.2 4.8 0.00 0.00 0.00 40 1013.6
20260504033757 19 242 14.5 14.5 0.00 0.00 0.00 41 1013.4
20260504033255 19 145 4.8 9.7 0.00 0.00 0.00 41 1013.5
20260504032751 20 68 0.0 9.7 0.00 0.00 0.00 41 1013.2
20260504032249 20 247 20.9 22.5 0.00 0.00 0.00 41 1013.1
20260504031745 20 263 19.3 27.4 0.00 0.00 0.00 40 1012.8
20260504031243 20 308 12.9 25.7 0.00 0.00 0.00 40 1012.7
20260504030738 20 282 12.9 37.0 0.00 0.00 0.00 42 1012.4
20260504030236 20 255 22.5 35.4 0.00 0.00 0.00 41 1012.5
20260504025732 20 253 22.5 33.8 0.00 0.00 0.00 42 1012.5
20260504025229 20 269 14.5 32.2 0.00 0.00 0.00 40 1012.4
20260504024726 20 291 12.9 30.6 0.00 0.00 0.00 39 1012.5
20260504024223 20 280 9.7 29.0 0.00 0.00 0.00 42 1012.7
20260504023720 20 268 11.3 24.1 0.00 0.00 0.00 42 1012.4
20260504023215 20 267 8.0 38.6 0.00 0.00 0.00 42 1012.4
20260504022712 21 262 11.3 25.7 0.00 0.00 0.00 39 1012.2
20260504022208 21 249 12.9 25.7 0.00 0.00 0.00 40 1012.1
20260504021706 22 242 14.5 24.1 0.00 0.00 0.00 37 1012.0
20260504021202 22 315 11.3 20.9 0.00 0.00 0.00 34 1011.8
20260504020659 22 312 16.1 29.0 0.00 0.00 0.00 36 1011.5
20260504020155 23 258 9.7 20.9 0.00 0.00 0.00 36 1011.2
20260504015652 23 261 14.5 22.5 0.00 0.00 0.00 36 1011.1
20260504015148 23 257 12.9 30.6 0.00 0.00 0.00 35 1011.2
20260504014644 23 247 17.7 19.3 0.00 0.00 0.00 34 1010.8
20260504014142 23 281 9.7 27.4 0.00 0.00 0.00 35 1010.8
20260504013639 23 259 16.1 19.3 0.00 0.00 0.00 35 1010.9
20260504013136 24 256 16.1 29.0 0.00 0.00 0.00 32 1010.8
20260504012633 25 245 9.7 17.7 0.00 0.00 0.00 31 1010.9
20260504012131 25 318 8.0 20.9 0.00 0.00 0.00 29 1010.7
20260504011622 26 32 3.2 12.9 0.00 0.00 0.00 27 1011.0
20260504011119 26 47 4.8 14.5 0.00 0.00 0.00 21 1010.6
20260504010614 27 253 14.5 20.9 0.00 0.00 0.00 22 1010.6
20260504010111 27 244 8.0 9.7 0.00 0.00 0.00 24 1010.7
20260504005608 27 246 12.9 17.7 0.00 0.00 0.00 27 1010.6
20260504005105 28 34 0.0 8.0 0.00 0.00 0.00 21 1010.3
20260504004603 27 238 9.7 16.1 0.00 0.00 0.00 23 1010.4
20260504004059 28 273 6.4 14.5 0.00 0.00 0.00 22 1010.4
20260504003554 30 330 11.3 12.9 0.00 0.00 0.00 17 1010.3
20260504003051 29 320 3.2 14.5 0.00 0.00 0.00 16 1010.1
20260504002548 28 230 16.1 35.4 0.00 0.00 0.00 21 1010.3
20260504002046 28 315 11.3 27.4 0.00 0.00 0.00 23 1010.2
20260504001544 28 262 27.4 40.2 0.00 0.00 0.00 22 1009.9
20260504001039 29 247 20.9 27.4 0.00 0.00 0.00 22 1010.3
20260504000537 29 271 16.1 30.6 0.00 0.00 0.00 21 1010.2
20260504000034 29 249 25.7 35.4 0.00 0.00 0.00 21 1010.2
20260503235532 30 242 22.5 27.4 0.00 0.00 0.00 20 1010.0
20260503235029 30 243 35.4 35.4 0.00 0.00 0.00 20 1010.0
20260503234526 30 250 20.9 32.2 0.00 0.00 0.00 20 1010.2
20260503234025 30 238 25.7 46.7 0.00 0.00 0.00 20 1009.8
20260503233520 30 247 27.4 35.4 0.00 0.00 0.00 22 1009.9
20260503233017 30 245 14.5 41.8 0.00 0.00 0.00 22 1009.9
20260503232514 29 246 24.1 38.6 0.00 0.00 0.00 23 1010.0
20260503232011 30 234 24.1 37.0 0.00 0.00 0.00 23 1010.2
20260503231509 30 255 25.7 32.2 0.00 0.00 0.00 23 1010.3
20260503231006 31 213 14.5 37.0 0.00 0.00 0.00 21 1010.3
20260503230502 31 236 14.5 20.9 0.00 0.00 0.00 21 1010.3
20260503230000 30 247 16.1 41.8 0.00 0.00 0.00 21 1010.2
20260503225456 31 232 17.7 29.0 0.00 0.00 0.00 22 1010.1
20260503224952 30 235 16.1 33.8 0.00 0.00 0.00 22 1010.3
20260503224449 30 235 14.5 30.6 0.00 0.00 0.00 23 1010.2
20260503223947 30 255 20.9 30.6 0.00 0.00 0.00 23 1010.2
20260503223445 31 244 29.0 38.6 0.00 0.00 0.00 23 1009.9
20260503222940 30 242 30.6 38.6 0.00 0.00 0.00 22 1010.2
20260503222439 31 234 29.0 35.4 0.00 0.00 0.00 22 1010.1
20260503221936 30 229 14.5 41.8 0.00 0.00 0.00 22 1009.8
20260503221434 30 231 37.0 45.1 0.00 0.00 0.00 22 1010.0
20260503220931 30 242 33.8 46.7 0.00 0.00 0.00 23 1010.1
20260503220427 31 230 41.8 51.5 0.00 0.00 0.00 22 1010.2
20260503215924 31 240 19.3 30.6 0.00 0.00 0.00 21 1009.9
20260503215421 30 246 25.7 49.9 0.00 0.00 0.00 21 1010.1
20260503214919 31 237 22.5 40.2 0.00 0.00 0.00 22 1010.5
20260503214416 31 234 24.1 40.2 0.00 0.00 0.00 20 1010.5
20260503213914 31 227 9.7 43.5 0.00 0.00 0.00 20 1010.5
20260503213411 31 253 27.4 46.7 0.00 0.00 0.00 20 1010.3
20260503212908 32 227 9.7 32.2 0.00 0.00 0.00 19 1010.2
20260503212406 32 230 17.7 41.8 0.00 0.00 0.00 19 1010.4
20260503211902 31 231 25.7 46.7 0.00 0.00 0.00 18 1010.3
20260503211359 32 224 24.1 41.8 0.00 0.00 0.00 18 1010.4
20260503210854 32 221 17.7 43.5 0.00 0.00 0.00 19 1010.5
20260503210352 31 240 38.6 53.1 0.00 0.00 0.00 19 1010.5
20260503205847 32 226 20.9 38.6 0.00 0.00 0.00 19 1010.4
20260503205344 31 228 20.9 43.5 0.00 0.00 0.00 19 1010.4
20260503204840 31 230 32.2 41.8 0.00 0.00 0.00 20 1010.3
20260503204337 31 229 43.5 48.3 0.00 0.00 0.00 21 1010.5
20260503203835 31 253 24.1 46.7 0.00 0.00 0.00 21 1010.4
20260503203332 31 242 35.4 56.3 0.00 0.00 0.00 22 1010.5
20260503202829 31 240 33.8 48.3 0.00 0.00 0.00 22 1010.1
20260503202327 32 246 24.1 41.8 0.00 0.00 0.00 20 1010.4
20260503201825 33 253 25.7 38.6 0.00 0.00 0.00 20 1010.6
20260503201321 32 232 25.7 30.6 0.00 0.00 0.00 19 1010.5
20260503200819 32 228 25.7 40.2 0.00 0.00 0.00 20 1010.5
20260503200315 32 264 27.4 38.6 0.00 0.00 0.00 19 1010.6
20260503195812 33 251 16.1 27.4 0.00 0.00 0.00 17 1010.7
20260503195309 32 245 17.7 29.0 0.00 0.00 0.00 18 1010.8
20260503194806 33 258 19.3 30.6 0.00 0.00 0.00 17 1010.8
20260503194302 32 244 17.7 29.0 0.00 0.00 0.00 18 1011.1
20260503193758 33 254 24.1 35.4 0.00 0.00 0.00 18 1010.9
20260503193254 32 232 20.9 33.8 0.00 0.00 0.00 19 1011.0
20260503192750 33 256 17.7 29.0 0.00 0.00 0.00 18 1010.9
20260503192245 32 263 9.7 24.1 0.00 0.00 0.00 18 1011.1
20260503191743 33 231 16.1 29.0 0.00 0.00 0.00 17 1011.2
20260503191240 33 265 17.7 27.4 0.00 0.00 0.00 18 1011.2
20260503190736 32 234 20.9 30.6 0.00 0.00 0.00 18 1011.2
20260503190233 32 260 9.7 16.1 0.00 0.00 0.00 18 1011.4
20260503185731 32 259 14.5 24.1 0.00 0.00 0.00 18 1011.5
20260503185226 33 257 20.9 30.6 0.00 0.00 0.00 18 1011.6
20260503184721 32 244 20.9 33.8 0.00 0.00 0.00 18 1011.7
20260503184217 33 190 6.4 24.1 0.00 0.00 0.00 18 1011.7
20260503183714 32 236 20.9 29.0 0.00 0.00 0.00 18 1011.8
20260503183211 32 245 14.5 30.6 0.00 0.00 0.00 18 1011.7
20260503182709 32 246 14.5 27.4 0.00 0.00 0.00 17 1012.0
20260503182208 32 240 16.1 35.4 0.00 0.00 0.00 18 1012.0
20260503181703 32 248 14.5 35.4 0.00 0.00 0.00 17 1012.1
20260503181200 32 245 19.3 24.1 0.00 0.00 0.00 17 1012.1
20260503180657 32 252 12.9 20.9 0.00 0.00 0.00 18 1012.1
20260503180156 32 235 16.1 24.1 0.00 0.00 0.00 18 1012.4
20260503175652 32 243 8.0 8.0 0.00 0.00 0.00 16 1012.3
20260503175150 32 236 3.2 12.9 0.00 0.00 0.00 17 1012.3
20260503174646 32 233 16.1 20.9 0.00 0.00 0.00 16 1012.5
20260503174143 32 220 3.2 25.7 0.00 0.00 0.00 17 1012.6
20260503173638 32 200 3.2 24.1 0.00 0.00 0.00 17 1012.5
20260503173130 32 264 9.7 19.3 0.00 0.00 0.00 16 1012.3
20260503172626 31 257 19.3 24.1 0.00 0.00 0.00 18 1012.5
20260503172123 31 253 6.4 11.3 0.00 0.00 0.00 17 1012.5
20260503171620 32 233 16.1 24.1 0.00 0.00 0.00 16 1012.7
20260503171117 31 236 14.5 29.0 0.00 0.00 0.00 16 1012.4
20260503170614 32 207 8.0 12.9 0.00 0.00 0.00 16 1012.6
20260503170110 32 231 12.9 19.3 0.00 0.00 0.00 16 1012.5
20260503151006 28 45 3.2 3.2 0.00 0.00 0.00 18 1012.8
20260503150502 28 39 3.2 6.4 0.00 0.00 0.00 18 1012.9
20260503131349 20 17 3.2 4.8 0.00 0.00 0.00 24 1011.5
20260503130847 20 54 0.0 3.2 0.00 0.00 0.00 24 1011.5
20260503130344 20 271 3.2 4.8 0.00 0.00 0.00 24 1011.4
20260503110733 23 188 0.0 4.8 0.00 0.00 0.00 20 1011.4
20260503110230 23 191 0.0 4.8 0.00 0.00 0.00 21 1011.3
20260503100155 22 222 3.2 3.2 0.00 0.00 0.00 21 1011.4